Location: Antioch Church
(34.9543°N, 88.5145°W)
Time: 11:50:41
(UTC+00:00)

Cosmos 1140 Rocket - Pass Details

Date: 11 December 2019
Orbit: 744 x 768 km, 74.1° (Epoch: 19 January)

Event Time Altitude Azimuth Distance (km) Brightness Sun altitude
Exits shadow 10:56:06 54° 315° (NW) 926 3.5 -23.0°
Maximum altitude 10:57:10 70° 256° (WSW) 812 3.3 -22.8°
Drops below altitude 10° 11:02:21 10° 173° (S) 2,294 6.2 -21.7°
Sets 11:04:43 0° 171° (S) 3,218 7.0 -21.3°
